{"data":{"norad_id":66448,"intl_designator":"2025-259AC","name":"STARLINK-35355","alt_names":[],"object_type":"PAYLOAD","status":"ACTIVE","operator":null,"country":"US","launch_date":"2025-11-11","launch_site_code":"AFETR","launch_vehicle":null,"mission":null,"orbit_class":"UNKNOWN","rcs_meters":null,"size_class":null,"mass_kg":null,"dimensions":null,"purposes":["comms"],"wikipedia_slug":null,"has_3d_model":false,"image_url":null,"decayed_at":null,"tle_current":{"epoch":"2026-05-24T15:29:33.005760Z","epoch_age_seconds":95945,"freshness":"FRESH","line1":"1 66448U 25259AC  26144.64552090  .00017156  00000+0  63114-3 0  9996","line2":"2 66448  42.9981 205.7357 0001878 273.8721  86.1915 15.27598336 31100","mean_motion":15.27598336,"eccentricity":0.0001878,"inclination_deg":42.9981,"raan_deg":205.7357,"arg_perigee_deg":273.8721,"mean_anomaly_deg":86.1915,"bstar":0.00063114,"rev_number":3110,"period_min":94.265617215231,"perigee_km":481.70567157064,"apogee_km":484.28271244636,"semimajor_km":6861.1311920085,"source":"CELESTRAK","updated_at":"2026-05-25T13:38:21.212782Z"}}}